Theta_e
313 314 315 316 317 318 320 322 323 322 322 324 326 327 327 326 327 326 323 321 324 328 329 330 332 331 332 332 332 333 334 334 334 334 332 332 334 333 333 328 322 322 319 316 319 320 320 321 323 324 325 326 327 327 328 328 325 320 324 327 325 327 326 324 322 322 322 319 320 321 323 324 323 323 322 323 322 324 324 325 327 325 324 327 331 334 333 331
313 314 314 315 316 317 318 320 321 321 322 323 325 326 327 326 326 326 323 321 323 327 329 330 331 331 332 332 332 333 333 334 333 333 333 332 333 332 333 328 322 322 318 316 320 321 321 323 324 326 326 327 329 329 329 328 326 324 325 327 327 327 323 320 319 318 319 319 319 318 321 323 323 323 322 322 322 323 324 325 327 326 325 325 330 333 330 329
312 313 314 315 315 316 318 318 319 320 321 322 324 325 326 326 326 325 323 321 322 326 329 330 331 331 332 332 332 332 333 333 331 332 333 332 333 332 333 330 321 320 318 317 321 321 322 324 325 326 326 328 330 329 330 327 327 326 325 328 328 324 320 319 318 317 317 318 319 318 318 320 322 323 322 322 322 323 323 324 325 327 327 325 327 330 328 327
312 313 314 314 315 316 316 317 318 319 320 320 322 325 326 326 326 325 323 322 321 324 328 329 331 331 331 332 332 332 331 331 329 331 332 331 333 332 332 329 322 319 317 318 321 321 323 325 325 326 327 329 329 329 330 327 328 327 324 327 326 321 319 318 317 316 316 317 318 318 317 318 320 322 322 322 323 323 323 323 325 326 327 326 325 326 326 326
311 313 314 314 315 315 315 315 317 317 318 319 320 322 325 327 326 326 324 323 321 323 326 328 330 331 331 331 331 330 330 330 330 330 330 330 332 332 330 325 320 318 317 320 321 321 323 325 325 326 327 329 330 330 330 327 328 327 325 328 324 320 319 316 315 315 315 316 317 317 317 318 318 319 320 321 322 323 322 322 323 323 326 327 326 325 325 325
311 313 314 315 314 314 314 315 316 316 317 317 318 320 323 326 327 326 325 324 323 323 324 326 328 330 331 330 330 329 329 330 329 329 329 329 331 333 330 322 317 317 317 320 323 323 324 325 326 326 325 328 330 330 331 329 328 327 326 327 322 319 317 315 315 315 315 315 316 317 317 317 317 317 318 319 320 321 321 321 322 321 324 327 327 326 325 323
311 313 315 315 314 313 313 315 315 315 315 316 317 318 321 324 326 326 326 326 324 324 324 324 326 329 330 329 329 328 328 329 326 326 329 330 331 333 331 321 316 317 317 321 323 324 325 325 326 326 327 329 330 331 332 329 326 327 328 327 323 320 317 315 315 314 314 315 315 316 315 316 316 317 318 318 319 319 320 319 320 319 322 329 328 326 325 322
310 312 314 314 314 313 312 313 314 314 314 314 315 316 319 322 325 326 327 326 326 325 326 325 326 328 329 328 328 326 326 328 326 326 328 330 332 332 330 320 316 317 317 321 323 324 325 325 327 328 329 331 331 332 331 327 326 327 329 327 321 320 317 315 316 315 314 315 315 316 315 315 316 317 317 317 318 318 318 318 319 317 321 330 330 325 325 323
309 310 312 313 313 313 312 312 313 314 313 312 313 315 316 318 322 326 326 327 327 326 326 325 327 329 328 327 326 325 326 327 326 326 326 330 331 331 327 318 317 318 317 321 323 324 325 326 328 329 331 331 332 332 329 329 329 327 330 327 319 319 317 315 317 316 315 316 317 316 317 317 317 316 317 317 318 317 317 318 320 318 320 329 331 326 323 322
308 309 311 312 312 312 312 312 313 314 314 312 312 313 315 316 320 324 325 327 328 327 326 326 328 329 327 325 325 326 327 326 326 326 325 328 331 329 322 317 318 319 319 321 323 325 326 327 329 329 330 331 332 332 330 331 331 328 330 326 319 320 319 317 318 317 316 318 318 318 319 319 317 316 317 318 318 317 318 318 319 318 319 325 330 328 324 321
309 309 310 311 311 311 311 311 313 313 312 312 311 312 314 316 318 321 324 325 326 327 327 326 327 327 326 325 325 326 327 326 326 326 324 327 330 327 320 317 318 319 320 322 324 326 326 327 329 329 330 330 331 332 331 330 329 327 327 324 321 322 320 319 319 318 318 319 319 318 318 320 318 316 316 318 319 317 318 318 318 318 318 323 326 329 328 324
310 310 310 311 311 311 310 311 312 311 310 310 311 311 312 315 317 319 321 323 326 327 328 326 325 325 325 325 325 326 327 327 327 326 324 326 329 325 320 318 319 320 321 322 325 326 326 327 328 329 329 330 330 330 330 329 328 327 325 325 326 324 323 321 320 319 319 319 318 319 322 324 322 320 319 320 320 318 318 318 319 320 319 321 324 326 328 326
310 310 310 311 310 310 310 311 311 309 309 310 310 310 311 313 315 316 318 321 324 325 326 326 325 325 325 324 325 326 326 327 327 325 324 325 326 323 320 320 320 321 322 323 325 325 326 327 327 328 329 329 329 329 329 328 329 328 326 327 330 329 327 325 322 321 321 320 318 323 328 330 328 326 324 323 321 318 319 318 318 321 320 320 322 324 327 328
310 310 310 310 310 310 310 310 310 309 309 309 310 309 310 311 314 314 315 319 321 322 325 326 326 325 323 323 325 326 326 326 327 325 323 325 324 321 320 321 321 321 322 324 325 325 326 327 327 328 329 329 327 327 328 328 328 327 327 329 332 334 333 329 325 323 323 321 319 325 330 330 329 328 324 321 321 319 319 319 318 321 321 321 322 324 326 327
310 310 310 310 310 310 310 310 311 311 310 309 309 309 309 310 313 314 313 316 319 320 322 326 327 324 322 323 324 324 325 325 326 324 323 325 324 321 320 320 321 321 322 324 326 326 326 327 327 328 328 327 327 327 328 328 327 327 330 332 332 334 333 329 327 326 325 321 320 326 329 329 329 328 326 322 319 318 319 318 318 320 321 322 322 323 325 327
309 309 309 310 310 310 310 310 311 311 311 308 307 308 309 309 311 313 314 316 319 320 321 324 326 323 322 324 323 323 325 325 325 324 324 325 325 322 320 319 321 322 323 325 326 326 325 326 326 327 327 326 327 328 329 329 329 329 331 332 333 333 332 328 327 329 325 320 321 326 329 330 328 326 326 325 319 317 318 318 319 319 320 322 323 324 326 327
309 309 309 309 310 310 309 310 310 311 311 309 308 308 308 308 309 312 314 316 320 320 320 323 323 322 323 323 323 323 324 325 324 322 323 325 324 321 319 319 321 323 324 325 326 325 325 325 327 328 326 326 327 328 330 331 330 330 330 330 331 332 332 328 326 327 324 320 322 325 327 329 327 324 324 323 321 319 319 319 319 320 320 321 322 325 325 326
308 309 309 309 309 310 309 310 310 311 311 310 310 309 308 309 309 311 313 315 319 320 320 322 322 322 323 321 322 323 324 324 323 321 324 325 324 322 320 321 323 324 325 325 325 325 325 324 326 328 327 326 327 328 330 331 329 329 330 329 330 330 332 330 325 324 322 321 324 324 324 325 324 324 322 321 321 318 318 318 318 319 319 319 321 323 325 324
308 308 308 308 309 309 309 309 310 311 312 311 310 310 309 310 310 311 313 314 317 320 321 322 321 323 323 321 321 323 323 323 322 321 323 324 324 324 323 323 324 325 325 325 324 324 325 324 325 327 327 326 326 327 329 329 327 328 329 329 330 328 330 331 324 322 321 322 324 325 324 323 323 323 322 321 320 319 319 318 317 318 318 317 319 322 323 324
308 308 308 308 309 309 309 309 309 310 311 312 312 312 311 311 312 312 313 313 315 319 321 320 320 322 322 321 321 322 322 322 321 322 323 323 324 324 323 324 324 325 325 325 324 324 324 326 327 327 327 326 325 326 326 326 326 327 328 329 330 328 329 329 321 318 320 322 323 324 324 324 324 324 323 323 323 321 321 321 320 320 319 318 317 319 320 321
308 308 309 309 309 309 309 309 309 309 310 312 312 312 313 312 313 313 313 313 313 316 318 318 320 321 321 321 322 322 322 322 321 322 323 324 323 324 324 324 324 325 325 324 324 323 324 327 327 325 325 325 325 325 325 325 325 327 328 330 330 329 330 327 320 317 319 322 325 325 326 326 326 327 325 324 324 322 321 321 321 321 320 320 318 318 318 318
307 308 308 308 309 309 309 309 310 310 310 312 312 312 312 311 312 312 312 314 314 313 315 315 317 319 320 321 321 322 322 321 321 322 323 324 324 324 325 324 324 325 324 324 324 324 325 326 325 324 324 325 325 324 324 325 326 327 329 331 331 330 330 325 319 318 320 323 327 327 327 327 326 327 326 323 324 323 323 322 321 320 319 320 320 319 319 318
307 307 308 308 309 308 308 309 310 310 310 311 312 312 313 311 311 312 312 314 315 314 313 313 315 316 319 322 321 321 322 321 320 321 323 323 324 324 324 324 324 325 324 324 324 326 326 326 324 324 324 324 325 324 325 326 326 328 329 330 331 330 330 326 320 319 319 321 324 324 324 323 323 324 323 323 323 322 323 323 322 321 319 319 320 320 320 319
307 307 307 308 308 308 308 308 309 310 310 310 311 312 313 311 312 312 312 314 315 315 313 313 314 315 317 321 321 321 322 321 320 320 322 322 323 324 324 324 324 324 324 324 324 325 326 325 323 324 323 323 325 325 325 326 327 329 330 330 329 328 330 328 322 320 320 321 320 320 324 324 322 323 323 323 324 322 323 323 323 323 321 319 319 320 320 320
307 307 307 307 307 308 308 308 309 309 309 310 311 312 312 312 313 311 312 315 315 315 315 314 315 315 315 319 321 321 321 321 320 320 321 322 323 323 323 323 324 324 324 323 324 324 324 323 323 323 323 323 324 324 325 327 328 329 329 329 328 327 328 328 326 325 326 327 320 319 328 330 325 324 325 325 324 324 323 322 322 324 323 320 319 319 320 320
307 307 307 307 307 307 307 308 308 308 309 310 310 311 311 312 313 311 312 314 313 314 315 314 316 317 316 318 320 321 322 322 320 320 321 322 322 323 323 323 324 323 323 323 323 324 322 322 322 323 323 324 325 325 326 327 328 328 329 328 327 327 329 329 328 329 331 329 322 319 328 330 326 324 324 325 326 326 324 322 322 323 323 321 319 319 319 320
307 307 307 306 307 307 307 308 308 307 309 310 310 310 310 311 312 310 311 312 312 314 315 314 316 318 317 318 319 321 323 322 320 319 320 321 321 322 322 322 322 323 322 322 324 323 322 322 323 324 324 325 325 325 326 326 327 328 328 328 327 327 329 329 327 329 330 328 324 321 326 329 328 326 325 325 326 326 325 324 322 321 321 321 320 320 319 320
306 306 306 306 306 306 306 307 307 308 308 308 310 310 310 311 311 309 310 311 313 314 315 315 316 317 319 319 319 321 322 321 320 320 319 320 321 321 322 322 322 322 321 322 324 324 322 323 324 325 325 325 325 325 326 325 325 327 328 328 327 326 328 328 327 328 328 328 327 326 326 329 329 327 325 326 326 325 325 325 324 322 321 320 319 319 319 319
305 305 305 305 305 305 306 307 307 307 307 307 309 309 310 310 310 310 309 311 315 315 315 317 316 317 319 320 320 320 320 320 321 320 319 320 321 321 321 322 320 322 321 321 324 324 322 322 324 324 325 325 324 325 325 325 325 325 326 327 327 326 325 326 327 326 325 327 327 327 327 330 330 327 325 327 327 326 326 326 326 324 323 322 320 319 319 319
304 304 305 305 305 305 306 307 307 307 307 307 308 308 309 308 309 311 308 309 316 316 315 317 316 318 320 320 320 319 319 319 319 319 318 319 320 320 321 321 321 323 324 322 322 321 319 320 323 323 324 324 323 324 326 325 323 323 325 326 325 324 323 323 324 323 326 328 328 327 326 328 330 329 326 326 326 326 326 326 326 324 322 322 320 320 319 319
304 304 304 304 305 305 306 307 307 307 308 307 307 308 308 307 308 309 308 310 316 317 316 316 317 319 320 320 321 320 319 319 318 318 318 319 319 320 322 324 323 324 324 324 323 321 320 322 323 321 321 323 324 325 325 323 322 323 325 324 324 324 323 324 323 323 328 329 326 325 327 327 330 330 326 325 324 323 324 323 324 323 320 319 319 318 318 318
303 304 304 304 304 304 305 307 307 308 308 308 308 308 308 308 307 308 309 310 313 315 317 317 318 320 319 319 321 320 320 319 318 319 318 319 320 320 323 325 324 324 324 324 323 322 323 323 322 320 319 321 325 325 323 322 322 325 325 325 327 326 325 326 326 325 328 327 321 323 326 327 327 326 324 324 323 322 322 321 321 321 318 317 317 316 317 317
303 304 303 303 304 304 305 306 306 308 308 307 308 308 307 307 307 308 309 309 311 315 318 318 319 319 318 319 319 319 320 319 318 319 319 319 321 321 323 323 324 326 326 324 323 322 323 322 320 321 321 321 323 324 322 322 323 324 324 325 328 327 326 327 326 326 328 324 318 320 324 326 325 323 322 323 322 321 320 319 320 319 317 317 316 315 314 314
303 303 303 303 304 304 305 305 306 307 308 307 307 308 307 306 308 308 309 310 313 316 317 318 319 319 319 319 319 319 319 319 319 319 319 320 321 322 322 322 323 325 325 323 322 322 325 324 321 321 323 322 323 323 322 321 322 323 324 325 327 327 327 327 326 328 329 323 317 319 325 328 328 323 320 318 318 318 318 318 318 317 317 317 315 313 312 313
303 304 303 303 303 304 304 305 306 306 307 307 307 307 306 306 307 307 308 311 315 315 316 318 318 318 319 319 319 319 318 318 319 319 320 321 321 322 322 322 322 322 323 324 322 321 324 324 320 320 321 321 322 322 320 321 323 323 324 325 326 328 327 326 325 325 326 324 321 321 325 326 324 321 318 318 319 317 316 316 316 317 317 315 315 313 313 313
304 304 304 303 303 304 304 305 306 306 306 307 308 308 306 306 307 307 307 311 315 315 315 317 318 318 319 318 318 318 318 317 318 319 320 320 321 321 321 322 321 321 322 323 322 322 323 322 319 319 319 319 322 322 319 321 323 323 325 325 325 326 325 326 326 322 322 326 325 323 324 322 320 321 321 321 323 320 317 316 315 316 316 314 314 313 312 312
304 304 304 304 303 304 304 304 305 306 306 306 307 307 307 307 308 307 307 309 314 315 315 316 319 318 318 317 316 317 318 317 317 319 320 319 320 321 320 321 321 320 321 321 321 321 322 320 318 318 320 320 320 321 319 320 322 323 325 324 323 326 325 324 326 324 323 326 326 325 324 323 324 326 324 322 323 321 319 317 316 316 315 314 313 312 311 311
303 303 304 304 304 303 303 304 304 305 305 305 306 306 306 307 308 308 309 309 312 314 314 315 318 318 318 317 317 317 317 317 317 318 319 319 320 320 320 321 320 320 321 320 322 321 321 320 317 316 319 320 319 321 321 320 319 321 323 322 323 327 326 324 325 327 326 324 326 328 326 325 325 324 323 323 323 321 320 320 319 315 314 314 312 311 311 311
303 303 303 303 304 303 303 304 304 304 304 304 305 306 306 306 306 307 309 309 310 313 313 314 316 317 316 317 317 317 317 318 317 316 318 319 319 319 320 321 320 320 320 320 322 321 320 322 319 315 316 318 320 321 322 322 319 318 321 322 323 325 326 325 324 327 328 326 327 329 327 328 327 321 320 323 324 321 321 322 319 314 313 313 312 311 311 311
302 302 302 303 303 303 303 303 304 304 303 303 304 305 306 306 306 306 307 308 310 311 311 313 315 316 316 316 316 316 317 318 317 316 317 318 319 319 319 320 320 319 319 320 322 320 319 322 320 316 315 318 321 322 322 321 319 319 322 323 322 323 324 325 324 325 327 327 328 328 327 329 326 320 320 320 321 322 321 322 318 313 313 313 312 312 312 311
302 301 302 302 302 303 303 303 303 303 303 303 303 304 305 306 307 307 306 307 310 311 310 311 314 316 317 317 315 315 315 315 316 317 317 317 319 319 319 319 319 319 320 322 322 321 320 321 319 316 316 319 320 319 319 320 319 319 321 321 321 321 322 324 325 324 324 325 327 325 325 328 323 320 321 320 322 323 319 318 316 313 313 313 312 312 312 312
301 301 301 302 302 303 303 302 302 303 302 303 303 303 304 305 306 307 307 307 309 311 310 310 312 315 317 318 317 315 314 314 315 316 318 318 318 319 319 318 319 319 320 322 322 319 319 319 317 316 317 318 317 316 316 318 319 319 320 321 322 320 320 322 324 325 325 324 323 321 324 327 323 321 323 321 320 319 317 316 315 313 314 313 312 312 312 312
301 301 301 301 301 302 302 302 302 302 302 302 303 303 304 304 305 306 307 308 308 310 310 310 311 313 315 317 318 317 315 315 314 314 317 318 318 318 318 318 319 319 319 321 322 319 318 318 316 316 316 315 315 315 315 316 318 320 320 320 321 321 320 321 321 323 325 325 323 323 325 324 322 323 321 315 314 314 315 316 315 314 315 314 312 311 312 313
301 301 302 302 301 301 302 302 302 302 302 302 302 303 303 304 305 305 306 307 308 309 310 310 310 311 313 316 317 317 317 317 316 314 316 318 318 318 318 318 319 320 319 321 321 319 319 318 316 316 317 316 316 316 317 316 317 318 319 319 320 321 321 321 320 320 323 325 325 325 325 322 321 322 317 313 314 314 313 314 315 315 314 314 313 311 312 313
300 300 301 302 302 302 302 301 301 301 302 302 302 303 303 303 304 304 305 306 307 308 309 310 310 310 312 315 316 316 317 318 318 316 316 318 318 318 318 318 319 319 320 320 318 318 320 319 317 319 320 319 318 317 318 318 317 318 318 319 320 321 321 321 320 320 323 324 323 324 324 320 317 317 315 315 316 314 312 313 314 314 314 314 313 311 311 312
299 299 300 301 302 302 301 302 302 301 302 302 302 302 303 303 303 304 304 305 306 308 309 310 310 310 312 314 315 316 317 318 319 318 317 319 319 317 317 318 318 318 319 319 317 317 319 318 318 320 320 320 320 319 319 318 318 318 319 319 319 321 321 321 321 321 321 323 322 322 321 320 317 316 316 315 315 315 313 312 311 313 314 313 312 311 311 312
299 299 300 301 301 300 300 302 302 302 301 302 302 302 302 303 303 304 304 304 305 307 308 309 310 310 311 312 313 315 316 317 318 317 317 318 318 317 318 318 318 318 318 318 317 318 319 318 317 319 320 320 320 320 318 318 318 318 318 319 319 320 322 321 321 321 321 322 322 320 319 320 319 317 316 315 315 316 314 311 310 312 314 313 312 311 311 312
299 299 299 300 301 300 300 301 302 302 302 302 302 302 303 303 303 304 305 305 305 306 308 310 310 310 310 311 313 314 316 317 317 316 316 316 316 317 319 319 318 318 318 318 317 317 319 318 318 319 319 320 320 320 318 318 318 318 317 318 319 319 320 321 320 319 320 321 321 320 321 321 318 317 316 315 314 314 313 312 312 312 312 312 312 311 311 312
299 299 299 299 300 300 300 301 301 302 302 302 302 302 302 302 302 303 304 306 306 305 306 309 310 309 309 310 312 312 313 316 316 315 315 315 316 317 319 320 318 316 317 318 316 316 317 318 319 319 319 319 320 320 319 318 318 318 317 318 319 319 319 320 320 319 320 320 318 321 324 322 319 318 317 315 314 313 312 313 312 312 312 311 311 311 311 312
298 298 299 299 299 300 301 301 301 301 302 302 302 303 302 303 303 303 303 305 307 307 306 307 309 310 310 310 311 311 312 314 315 314 314 315 316 317 319 321 319 316 316 317 316 315 318 319 319 319 319 319 319 320 319 318 318 318 318 318 318 318 319 319 319 319 320 319 318 319 322 321 319 318 316 314 314 314 313 313 312 313 313 312 312 312 312 312
298 298 299 299 299 299 300 301 300 300 301 301 302 303 303 303 303 303 303 304 306 307 307 306 308 310 311 311 311 312 312 313 313 313 313 314 316 316 318 319 318 316 316 316 316 316 317 319 319 318 319 318 318 319 320 318 318 318 318 318 318 318 319 319 319 319 319 319 319 319 319 319 319 319 317 315 314 313 313 313 313 313 313 313 313 313 313 314
298 298 298 299 299 299 300 300 300 300 301 301 301 302 303 303 304 305 305 305 305 306 307 308 308 309 310 311 311 311 311 312 312 311 312 313 314 315 316 316 316 316 316 316 316 316 316 318 317 316 319 319 317 318 319 318 318 318 317 317 317 317 318 318 318 319 318 318 319 319 318 319 320 320 320 319 317 315 313 313 314 314 314 314 314 314 314 315
Wind_Speed
31 32 32 31 31 29 28 28 28 30 34 37 38 35 34 36 36 38 39 38 38 37 35 35 34 30 28 28 27 26 24 23 24 27 29 30 30 27 29 31 25 21 21 20 15 12 12 11 10 9 7 6 6 5 4 3 5 2 1 2 2 2 3 3 4 3 3 5 5 5 2 2 4 5 4 2 3 3 3 5 6 5 5 4 6 7 9 11
31 31 31 30 30 30 29 28 26 25 28 32 36 35 34 35 35 36 38 38 39 38 36 35 34 31 29 28 28 26 24 24 24 28 30 30 29 29 30 30 27 23 23 21 16 14 14 13 11 10 9 7 6 6 5 4 5 5 2 2 3 2 1 4 6 6 5 6 6 8 3 2 3 6 5 3 6 8 5 6 8 7 8 7 10 10 10 10
30 29 30 29 29 30 28 26 24 23 23 27 32 35 34 34 34 34 36 37 38 39 37 36 36 33 31 29 27 26 25 22 23 29 31 30 29 30 30 29 27 24 25 22 16 15 13 12 12 11 10 8 7 6 5 5 5 6 3 2 2 3 3 5 8 8 7 6 6 8 4 1 3 3 4 3 5 8 8 8 10 11 12 10 12 13 12 11
29 27 28 29 29 29 27 24 24 22 21 23 26 28 31 33 32 33 36 36 38 39 37 38 38 35 32 29 26 26 23 16 22 32 31 31 31 31 31 29 28 25 25 23 17 15 13 12 11 11 10 8 8 7 5 6 6 6 4 4 1 2 2 6 8 8 6 5 5 4 1 1 2 2 3 4 4 4 7 9 11 13 17 16 15 16 15 13
30 27 26 28 29 26 25 26 25 23 20 22 22 23 26 29 31 32 34 35 37 39 38 38 40 38 33 29 27 25 21 7 16 33 33 31 32 31 31 29 29 28 27 24 20 17 14 13 12 12 9 7 7 5 6 10 8 4 5 8 3 1 1 6 6 6 5 4 2 1 1 1 2 2 4 6 5 1 2 2 6 5 11 16 15 16 16 15
29 27 24 26 28 24 24 25 27 26 22 21 21 23 23 23 28 30 32 33 35 37 36 37 38 36 34 31 28 26 23 6 4 22 32 32 32 32 31 29 29 29 29 27 22 18 15 15 13 12 9 6 7 6 8 12 9 3 5 9 6 3 2 5 4 4 4 2 1 1 1 1 2 4 6 9 10 4 4 4 1 1 2 9 12 14 15 15
28 27 24 24 27 25 25 25 27 32 30 25 22 22 22 21 24 26 30 31 32 34 32 35 36 35 35 32 28 28 28 14 3 7 23 32 32 32 32 30 31 31 31 29 22 18 17 16 14 13 10 6 7 8 9 9 9 4 4 7 8 5 5 5 3 3 3 0 1 2 1 3 4 4 4 7 10 8 7 9 8 6 2 9 12 13 13 13
28 27 24 24 24 24 25 24 25 29 32 32 27 24 21 21 22 22 27 28 28 30 30 34 35 34 35 33 32 28 27 21 8 5 15 29 33 32 34 33 33 33 33 30 23 20 19 17 16 14 8 6 8 8 7 7 6 6 6 3 7 6 6 6 4 4 4 3 2 2 4 7 7 6 5 9 13 11 10 10 12 10 6 12 14 13 13 14
26 25 23 22 22 22 22 22 24 26 29 32 31 29 22 20 22 21 24 27 27 28 29 32 34 35 33 34 33 22 25 24 13 9 13 26 33 33 36 36 36 35 34 31 24 21 19 16 17 15 7 7 9 6 9 7 4 7 11 6 7 7 7 6 6 5 5 4 3 3 6 8 7 6 7 14 17 14 12 11 12 11 8 14 15 14 13 14
24 24 22 20 20 19 20 21 23 24 26 29 31 32 26 21 21 20 22 27 29 28 29 31 35 38 35 34 27 13 24 28 16 13 13 24 34 35 37 37 38 37 35 33 27 22 19 15 16 14 8 5 8 6 9 6 2 4 10 6 6 6 7 8 7 7 7 5 5 5 6 8 5 4 5 8 7 7 11 13 12 10 10 15 16 15 14 13
24 24 23 20 19 20 21 21 21 21 23 28 29 31 31 24 19 21 22 21 27 28 28 31 32 34 35 35 25 10 21 30 24 18 14 23 34 37 41 39 39 39 37 35 29 26 21 15 11 10 7 3 6 7 8 7 2 1 2 3 4 6 7 9 9 10 7 4 8 6 6 10 6 5 7 7 4 6 12 12 11 9 9 15 17 16 16 15
24 25 23 22 21 21 22 21 21 21 22 26 27 29 32 28 19 18 20 17 22 25 27 34 29 29 33 33 27 15 17 28 30 23 14 22 34 39 42 39 38 38 36 36 30 27 24 17 10 10 7 5 5 5 5 9 6 1 1 1 5 7 8 12 12 13 10 5 7 3 4 8 8 10 16 19 14 11 13 12 12 12 10 13 16 17 18 18
24 24 23 23 22 22 24 23 22 22 23 26 27 29 31 33 24 18 19 19 20 21 25 33 30 32 34 26 26 21 18 26 30 24 16 24 36 41 42 38 36 34 32 34 29 27 25 18 10 13 11 6 3 3 3 7 7 4 4 4 4 5 7 14 16 14 12 8 10 6 2 6 6 11 19 24 22 16 15 14 14 14 13 14 16 17 19 19
24 24 23 22 22 23 25 25 24 23 25 27 28 31 31 34 31 23 19 19 20 18 19 29 30 34 35 24 27 25 20 25 28 24 20 29 41 42 41 36 32 31 28 30 29 27 25 14 6 11 12 5 0 2 4 4 5 4 5 4 3 3 4 10 17 15 10 9 13 8 3 6 4 7 10 13 17 14 12 13 14 15 14 14 16 18 20 20
24 23 22 22 22 24 25 26 25 24 25 25 25 29 32 36 35 29 21 19 21 18 16 27 34 33 27 19 24 24 20 25 25 24 21 29 42 43 40 35 30 29 25 25 25 25 22 11 4 7 7 6 3 3 3 2 3 3 4 3 4 4 2 4 14 17 10 7 14 9 3 6 6 11 11 7 11 12 12 12 13 15 15 15 17 18 20 20
25 23 22 22 23 25 26 27 25 24 25 25 25 27 32 37 39 34 25 19 19 18 16 26 40 37 20 11 19 23 23 25 24 24 22 26 38 44 43 35 29 26 23 22 20 21 21 12 6 8 5 6 5 4 3 3 3 3 4 3 5 6 4 2 7 15 13 8 11 11 4 4 3 9 12 9 11 12 12 13 12 14 15 16 17 18 20 20
24 23 22 21 23 25 26 27 26 24 26 28 29 29 32 36 42 40 30 21 17 17 17 20 35 34 14 10 20 27 28 25 25 25 24 27 36 43 42 34 27 22 20 19 17 17 18 13 7 6 6 5 5 5 5 5 4 4 5 5 5 5 6 4 2 9 13 8 9 11 7 7 3 5 9 12 15 14 14 15 15 16 16 16 17 19 19 20
24 23 22 21 22 24 26 26 25 24 25 28 27 29 33 34 41 42 33 25 17 14 16 17 24 19 7 13 22 30 32 25 26 26 25 28 33 40 39 33 28 24 20 16 16 18 16 13 8 4 4 5 6 7 5 5 6 6 6 4 5 5 5 5 3 7 11 7 7 10 9 9 8 7 9 14 15 16 16 15 15 16 17 17 17 19 19 19
23 22 22 21 22 24 26 25 24 23 24 26 24 27 33 32 35 37 34 27 17 10 6 10 20 7 1 14 22 30 32 25 26 27 28 29 30 35 34 30 30 28 22 13 13 19 15 9 7 5 5 7 8 9 8 7 7 8 6 5 5 5 6 5 5 8 11 7 6 8 9 9 8 8 11 16 18 19 18 15 15 14 15 17 17 18 20 21
23 22 22 22 22 25 26 26 24 23 24 26 25 25 25 25 20 19 27 28 24 17 4 3 14 1 7 17 25 29 30 26 28 31 31 31 32 34 32 29 26 22 17 11 10 16 15 7 6 8 8 10 11 11 12 11 9 8 6 6 6 5 6 5 5 6 8 6 6 8 8 8 8 7 9 15 17 19 19 17 18 17 17 18 18 19 21 22
24 23 23 22 23 25 27 27 24 22 23 25 28 23 19 23 15 11 23 26 33 35 19 8 9 4 5 19 30 35 35 28 28 32 32 33 36 30 27 28 19 10 12 13 12 12 12 8 8 11 11 12 12 11 12 12 11 8 5 4 5 5 6 2 5 5 3 1 4 6 7 9 9 8 9 12 12 13 16 17 19 20 20 22 23 24 24 23
24 24 24 23 24 25 27 27 24 22 24 23 26 21 17 27 22 18 25 16 25 41 33 20 14 10 2 17 30 37 36 26 21 30 35 36 35 26 23 23 12 8 12 13 11 8 8 8 10 13 10 8 10 11 11 11 11 8 5 4 4 5 4 0 5 5 4 1 4 4 7 9 8 8 9 12 11 12 16 18 20 23 24 25 26 27 28 26
24 24 25 24 24 25 26 27 25 23 24 23 25 20 16 28 25 18 20 8 10 26 30 25 22 19 8 13 28 33 28 22 19 30 38 35 32 28 25 19 11 12 13 10 10 9 7 7 11 14 11 9 9 11 10 10 9 6 4 4 4 4 5 2 1 2 4 2 4 4 6 7 8 9 9 15 20 20 22 25 26 27 28 29 28 28 29 28
24 24 25 24 24 24 25 27 26 23 23 22 24 21 17 26 24 15 15 4 4 8 16 20 20 21 16 11 27 33 26 24 25 34 39 32 30 27 22 19 14 11 12 14 15 11 5 5 11 13 12 13 11 10 11 8 6 7 6 5 4 5 6 3 2 3 3 3 3 3 5 5 8 10 9 14 22 24 27 28 28 30 30 30 29 28 28 28
25 25 24 25 24 24 25 26 26 24 22 21 22 21 17 20 21 17 12 1 3 3 6 13 14 19 23 15 23 32 26 23 29 40 42 36 33 24 18 21 15 9 14 19 16 10 6 10 14 13 11 14 11 10 12 8 5 7 7 6 6 5 5 4 5 3 1 2 2 0 3 4 5 7 6 4 7 12 17 20 22 27 27 26 28 28 29 29
26 25 25 25 24 25 24 23 25 26 21 19 20 21 18 18 19 20 12 2 4 4 3 8 9 12 19 17 21 25 18 15 24 40 42 34 33 24 16 17 12 10 16 16 10 6 6 11 14 12 12 14 12 10 11 9 5 5 6 9 8 6 4 2 2 3 0 1 2 2 2 3 5 7 7 6 5 7 8 10 15 21 22 24 28 30 32 33
26 25 25 25 25 27 23 18 24 27 22 19 19 21 20 17 19 20 12 1 4 5 8 9 8 10 13 16 25 18 7 14 20 32 41 30 26 23 13 12 12 12 15 11 7 6 9 13 12 12 13 11 10 9 9 12 8 3 3 8 9 4 2 1 3 1 2 1 1 3 3 3 5 6 8 8 9 11 11 10 12 18 22 25 27 30 32 33
26 24 24 24 24 26 21 16 23 27 25 23 21 21 20 19 21 18 8 3 4 7 8 9 9 11 11 18 32 17 6 23 19 23 42 31 20 18 10 12 15 13 16 13 7 5 10 13 11 12 12 9 9 8 9 13 8 2 2 4 6 5 3 1 1 1 2 3 2 4 3 3 5 5 7 8 10 12 13 12 11 17 24 26 28 30 30 29
25 24 23 22 23 24 20 17 22 25 24 24 22 21 20 23 22 11 2 3 3 4 4 12 12 12 15 19 27 18 8 15 9 19 40 28 16 13 4 11 16 13 16 14 5 3 6 13 15 12 8 8 9 7 9 11 6 2 1 4 5 2 2 2 2 1 2 1 3 4 4 4 4 4 5 5 8 9 10 9 10 15 20 21 25 27 25 25
25 24 23 23 23 25 21 16 19 21 22 24 23 22 22 22 14 5 4 4 2 3 6 12 13 14 20 14 12 15 9 3 9 24 27 16 14 11 3 8 11 8 7 5 3 1 2 10 16 11 7 8 9 6 7 9 8 6 5 6 6 4 5 4 2 3 1 3 4 6 8 4 3 5 5 4 5 5 5 5 4 6 8 7 9 12 12 14
25 24 24 23 24 26 22 17 17 18 23 26 26 27 24 14 4 4 8 1 4 5 7 8 10 14 20 13 7 13 10 2 14 22 13 7 10 7 4 6 4 4 3 4 3 2 2 8 8 6 7 8 6 2 3 10 12 8 4 5 5 3 3 2 1 2 1 3 2 4 8 7 5 6 4 3 3 0 3 4 4 6 5 3 0 3 6 8
25 24 23 22 22 23 20 15 16 19 24 29 33 32 20 6 3 5 4 3 3 5 7 7 9 11 16 14 9 10 7 4 13 18 11 8 8 7 8 8 7 6 5 6 4 2 5 5 1 3 5 7 7 5 4 7 9 5 4 6 4 3 2 1 2 2 3 3 3 2 2 4 7 7 6 6 6 4 5 5 5 5 2 2 4 5 7 9
25 23 22 23 20 20 19 15 17 20 23 31 33 24 10 3 6 6 4 3 1 1 7 10 10 11 15 15 10 9 7 5 12 16 14 12 9 10 10 9 10 6 5 11 8 5 3 2 1 3 3 8 10 8 6 5 7 7 6 7 4 4 3 2 4 2 2 2 3 1 3 2 5 4 9 13 12 10 10 9 7 5 4 4 5 7 9 11
25 23 23 23 18 18 19 16 18 18 21 31 26 12 7 5 6 8 7 3 2 1 6 11 12 13 16 14 12 11 6 4 12 14 13 13 9 9 9 8 10 3 4 10 6 6 7 1 5 7 5 10 11 9 8 6 7 7 5 5 4 3 4 4 4 3 2 1 2 1 1 2 3 2 6 9 9 7 6 9 9 5 5 5 5 6 7 8
24 22 22 22 19 18 17 17 18 17 20 26 14 5 8 5 4 9 7 2 0 2 6 9 13 12 12 12 12 14 7 2 11 13 11 13 10 10 11 10 12 6 6 10 4 6 10 3 7 8 5 12 11 8 12 10 5 5 4 4 5 4 3 3 2 3 4 2 1 3 3 4 4 5 9 8 7 5 6 9 9 7 6 5 4 3 3 4
24 22 21 21 21 20 18 18 18 19 21 19 6 4 9 5 4 7 6 5 4 4 4 7 12 9 8 8 8 13 9 3 10 11 8 12 12 13 13 10 14 13 9 11 5 6 9 2 5 6 2 11 14 10 13 12 6 3 5 6 3 1 3 3 0 1 3 1 3 4 4 5 3 7 10 10 9 7 8 8 9 9 8 5 4 5 6 7
26 22 20 21 21 20 21 20 17 19 21 13 4 4 6 3 3 4 7 9 7 7 6 5 8 8 7 6 6 12 10 4 8 8 5 9 9 13 14 10 16 16 10 10 4 4 7 2 1 5 5 12 15 10 11 12 9 6 6 6 3 5 3 2 1 1 2 3 3 5 6 4 2 5 5 8 9 7 7 7 8 9 9 9 8 10 12 13
26 21 18 19 20 20 22 19 15 17 15 7 5 6 4 2 3 2 7 12 9 7 6 4 4 6 6 6 7 13 12 6 7 6 5 8 5 10 15 10 15 18 14 12 6 3 7 4 3 3 5 8 9 7 8 9 6 5 6 7 5 1 1 3 2 2 4 4 4 4 7 5 5 5 2 5 10 10 9 7 8 9 11 12 12 13 14 15
25 18 13 17 21 21 21 19 17 15 9 4 6 5 4 4 6 8 7 10 9 7 6 5 3 2 4 6 6 12 14 10 9 5 4 6 3 9 18 12 12 19 18 13 7 5 7 6 1 3 2 5 5 5 8 8 2 1 4 6 4 2 2 4 3 2 3 4 4 3 3 4 6 8 7 8 10 11 11 9 8 9 14 16 15 14 14 14
24 13 7 17 23 20 21 21 17 12 6 5 6 5 4 5 7 13 16 11 6 6 6 6 6 4 4 5 4 7 8 7 9 7 4 6 4 6 16 14 11 19 21 14 7 7 6 4 5 1 1 4 7 6 9 11 7 4 7 8 5 2 2 1 2 2 2 3 3 3 4 5 5 6 10 11 9 9 10 8 8 12 19 20 18 16 15 14
21 8 6 20 25 23 24 18 10 7 5 5 6 6 6 5 4 11 19 17 7 5 7 6 7 5 4 5 5 4 4 3 7 8 5 8 7 4 14 19 14 16 18 10 6 7 5 4 7 5 5 7 7 5 3 5 9 8 7 8 8 5 3 2 4 4 2 2 2 2 4 7 4 4 8 9 7 7 10 12 11 16 24 24 21 18 14 12
17 5 10 23 26 28 26 12 5 6 4 6 8 8 8 5 4 7 13 15 10 5 5 5 6 6 4 5 5 6 6 2 4 6 3 8 13 8 16 29 25 19 17 10 8 8 3 5 7 5 5 5 2 0 3 2 5 7 4 5 7 6 5 6 5 4 4 3 2 1 3 7 4 3 4 6 7 10 16 19 16 19 24 25 22 17 13 11
14 6 15 24 27 32 25 6 5 7 3 7 10 10 9 6 4 5 7 9 9 5 2 3 5 7 5 3 3 6 7 4 5 7 4 5 12 10 15 31 29 20 15 11 8 5 4 4 5 4 2 2 3 2 3 5 2 5 7 7 8 9 9 6 2 3 5 5 4 3 5 7 5 2 5 7 11 14 17 19 19 18 19 21 23 19 12 10
16 12 18 26 31 33 21 4 6 8 6 9 8 8 10 7 6 7 5 6 7 5 6 4 4 7 5 4 4 5 8 6 5 10 7 3 7 8 15 30 29 17 14 14 12 9 5 4 7 6 3 1 1 0 2 2 4 7 9 9 9 11 11 5 1 1 2 6 7 5 7 8 4 1 5 8 9 10 11 14 16 16 15 18 23 22 14 9
14 10 14 27 35 30 15 8 10 8 8 11 8 8 10 8 10 13 9 6 8 7 7 7 8 8 5 5 5 5 8 7 4 7 9 6 4 4 15 31 28 16 17 21 20 15 8 6 8 9 9 9 8 7 7 8 6 3 4 10 12 12 12 9 4 1 4 8 8 6 10 8 2 3 4 6 7 7 9 12 14 14 16 19 23 24 19 12
11 6 6 17 27 21 11 11 12 8 8 9 7 9 11 8 10 16 15 10 9 10 7 7 11 10 7 7 7 6 9 8 3 4 5 7 4 2 14 31 31 26 25 21 17 12 4 5 11 11 12 13 11 7 7 9 8 8 11 15 14 12 12 10 5 6 10 6 5 11 16 9 2 5 6 5 7 7 8 12 14 16 18 21 25 26 21 14
9 5 5 9 12 10 6 8 8 6 8 11 7 7 12 12 8 11 15 12 11 12 9 7 9 10 10 10 7 6 8 8 6 4 3 5 3 4 12 26 29 33 30 17 13 9 2 6 13 13 14 11 6 7 11 15 16 17 17 17 16 14 15 12 12 16 11 4 7 18 17 12 8 7 8 8 8 7 7 12 17 20 21 22 24 26 23 18
7 6 12 15 8 3 5 8 8 7 9 13 9 7 13 16 12 9 11 13 14 13 9 7 10 12 12 11 7 6 9 8 8 7 4 4 2 3 8 15 19 27 23 12 12 8 1 7 13 12 14 8 6 9 13 14 14 14 16 19 18 18 18 17 19 20 11 7 15 15 13 16 15 8 9 10 9 10 12 17 20 21 22 23 23 25 25 22
8 3 11 18 11 5 11 14 11 9 10 12 11 10 14 16 16 12 8 8 11 13 11 9 9 12 14 13 10 8 9 8 7 8 6 6 6 3 5 7 9 17 16 7 8 5 2 6 8 8 11 8 5 9 12 13 11 12 16 19 18 19 22 22 23 20 13 17 23 12 8 15 14 9 10 12 14 16 16 18 20 19 21 24 25 25 26 23
12 6 8 12 10 8 12 15 11 7 9 11 10 10 13 15 17 14 11 10 8 9 13 14 12 13 14 15 13 11 12 11 9 10 9 8 7 6 6 5 5 10 12 6 4 5 5 6 6 7 8 7 5 8 11 13 13 13 16 18 17 18 19 21 24 19 15 21 24 12 9 13 8 7 10 15 19 18 14 16 19 20 22 25 25 25 25 23
20 16 11 8 5 7 8 9 9 7 7 9 8 8 10 13 16 13 12 16 15 10 11 16 16 13 12 17 18 15 15 14 13 16 16 14 12 8 5 4 5 9 10 7 7 8 7 7 6 7 7 8 9 9 9 11 12 12 14 16 19 19 19 23 25 19 16 21 19 12 14 12 5 6 8 14 17 15 13 16 19 22 26 26 25 24 23 21
22 19 17 10 5 8 8 5 7 8 7 8 10 11 11 11 13 12 10 15 22 22 18 17 16 13 11 15 19 22 24 23 23 25 24 23 21 13 7 7 8 11 11 9 7 7 8 8 6 7 8 10 10 9 8 8 7 8 14 21 26 26 24 23 20 17 18 18 14 13 14 8 7 8 8 8 10 11 14 19 24 27 28 27 25 24 22 21
Wind_Direction
224 227 226 226 227 227 224 219 216 216 218 218 213 210 211 211 212 213 214 213 211 211 211 211 210 206 204 204 203 202 203 208 210 211 212 214 217 212 205 207 209 207 202 191 176 179 187 193 202 195 199 209 207 207 220 226 197 199 4 203 234 242 271 343 21 35 100 107 97 97 136 191 130 156 193 206 180 189 158 163 194 186 199 167 128 171 184 183
224 225 224 224 226 228 227 220 214 213 214 217 215 209 207 209 209 210 212 213 212 211 210 211 209 205 204 203 202 202 204 207 213 216 215 214 215 214 209 207 208 208 199 183 176 182 184 190 190 191 200 200 197 198 214 218 196 208 240 229 229 195 292 6 44 40 53 88 94 89 62 302 111 143 175 210 206 195 185 186 194 184 201 185 153 184 201 195
225 225 223 222 223 225 223 217 212 210 207 210 214 210 205 207 207 208 210 212 211 211 210 210 209 205 203 202 200 202 203 205 216 219 216 214 214 215 212 206 207 207 196 182 177 183 184 187 185 188 201 210 197 183 203 197 195 209 214 251 232 136 95 44 60 57 49 73 82 85 77 329 94 131 166 222 230 197 201 195 188 184 195 195 177 197 212 205
224 224 221 221 221 221 219 218 217 212 206 203 208 208 203 203 205 207 208 209 210 210 210 210 210 207 201 198 198 201 200 206 226 220 213 213 212 214 213 207 205 204 193 178 174 184 187 186 185 190 200 220 202 179 195 184 184 181 182 239 256 66 86 72 72 70 58 64 68 85 141 300 108 147 193 233 256 218 224 206 195 198 199 201 192 201 216 212
222 220 216 218 220 218 215 217 217 214 210 205 206 208 203 198 199 204 205 206 208 209 212 212 211 208 198 193 196 197 193 200 239 224 216 212 210 213 212 205 202 200 189 175 172 182 190 188 185 194 202 225 206 186 209 196 196 178 199 237 225 17 70 89 86 82 65 60 70 219 229 51 111 223 241 242 253 196 57 131 175 191 198 205 202 203 215 218
222 218 211 211 213 210 209 213 216 218 214 208 211 211 208 199 192 196 201 202 204 208 212 213 214 209 194 190 195 192 192 191 273 226 219 212 208 212 210 202 200 197 187 177 172 175 183 184 182 192 198 224 210 193 220 203 195 209 220 220 193 168 112 96 103 105 78 36 312 297 352 335 283 266 252 238 246 258 11 4 218 44 180 203 206 206 216 223
220 216 209 205 205 202 203 210 215 220 219 213 215 216 215 207 192 189 194 198 200 205 209 212 218 209 189 185 189 188 199 214 311 223 212 209 206 208 207 200 197 194 187 180 173 173 178 180 185 192 193 217 217 209 220 192 175 214 252 208 183 168 149 133 131 131 133 158 305 328 293 255 262 267 260 242 247 256 291 304 280 283 249 199 205 215 226 231
216 216 211 204 202 198 200 206 208 215 217 214 215 220 225 215 200 188 188 194 196 200 203 209 217 204 185 181 181 186 203 213 235 218 196 202 202 204 204 198 195 192 187 182 175 178 179 183 191 192 195 212 214 209 185 161 170 213 259 207 154 157 158 155 159 155 174 202 245 263 253 250 247 247 258 253 251 255 267 279 273 271 223 199 213 220 225 230
212 216 216 207 203 197 198 203 205 207 210 212 213 218 232 230 212 197 187 191 196 201 201 205 210 198 187 183 177 187 205 201 208 216 192 196 199 200 200 196 194 191 187 183 174 177 180 186 194 192 211 219 208 193 151 168 193 198 235 215 141 172 179 172 184 179 189 208 223 237 257 261 245 239 265 261 255 254 250 248 254 261 219 199 214 220 221 227
211 216 216 210 205 203 201 202 204 201 199 206 212 215 228 237 225 212 195 191 195 199 200 202 203 196 188 181 175 190 204 193 190 207 199 193 196 196 197 196 194 191 187 181 172 172 178 185 196 203 232 233 197 179 148 182 248 208 234 209 148 203 193 188 206 198 197 213 226 236 271 275 243 214 255 258 248 229 218 224 238 250 223 203 209 219 221 224
210 212 213 208 203 205 204 205 201 195 194 202 209 211 219 232 234 222 208 197 191 192 200 204 203 198 186 179 181 185 194 193 190 200 205 194 194 194 194 195 194 192 188 182 173 171 175 173 188 214 237 208 175 186 175 181 203 294 238 157 185 227 211 210 218 204 198 214 220 228 287 281 259 212 230 233 221 202 201 213 233 242 228 210 209 215 220 221
210 210 210 206 200 199 201 207 201 195 198 201 206 207 213 225 236 232 221 212 193 192 207 206 202 201 188 182 189 179 178 195 195 198 207 194 191 193 193 193 193 193 190 183 173 170 170 160 177 223 220 167 159 187 193 179 178 194 167 214 225 219 221 220 216 206 198 196 190 180 311 270 245 228 238 241 237 231 222 223 232 238 232 215 210 212 219 222
208 207 206 201 196 194 196 205 203 200 199 198 204 206 212 221 233 242 231 227 209 201 213 205 201 200 189 185 190 181 173 188 195 197 195 187 187 190 192 190 188 189 190 188 178 169 170 161 181 228 218 183 175 159 140 170 189 209 204 244 242 215 234 217 209 203 194 187 168 141 306 247 239 243 244 242 235 226 225 226 225 230 231 217 211 211 218 222
204 204 202 195 192 190 192 201 202 203 201 196 199 202 210 219 229 241 236 239 227 216 218 209 207 196 186 190 189 183 174 174 191 198 185 183 186 188 189 187 185 183 185 189 183 172 170 162 177 229 219 198 234 151 132 155 186 212 201 218 233 233 264 204 191 189 186 180 165 147 262 243 263 273 256 241 226 215 216 226 224 222 225 220 214 212 217 223
201 201 198 190 187 186 189 198 200 200 199 193 193 199 207 214 225 236 238 242 231 227 228 213 211 194 181 194 190 184 177 169 186 197 189 188 187 185 187 188 188 188 189 192 192 186 178 167 181 231 214 178 180 190 167 152 177 215 209 199 205 216 287 174 173 181 180 170 169 162 244 249 247 254 259 242 206 204 215 230 230 222 220 218 217 215 216 222
201 199 195 187 182 183 187 194 199 197 192 190 192 197 204 211 221 230 236 243 234 227 222 203 198 189 179 193 187 182 180 172 180 190 191 194 189 186 186 188 191 194 199 200 199 197 186 175 203 237 208 165 188 193 166 186 190 210 224 220 198 195 209 157 167 185 172 143 177 187 233 259 219 229 242 236 209 205 216 227 233 233 228 217 215 218 218 220
198 196 193 186 179 181 185 191 198 196 190 190 189 191 199 208 218 226 230 237 239 224 222 208 187 181 179 173 172 178 178 173 177 181 183 189 190 187 184 183 185 183 183 183 182 187 186 179 191 224 210 181 194 193 187 202 193 194 212 230 231 212 203 170 159 194 170 144 185 201 235 252 233 202 197 205 214 218 224 231 238 242 239 227 217 217 222 222
195 192 191 187 178 179 185 190 196 192 188 188 184 186 196 204 212 222 227 232 242 222 227 227 186 173 192 177 170 179 176 168 174 174 171 180 188 188 182 176 172 164 159 163 172 180 182 180 175 174 197 199 198 196 202 201 189 199 201 217 250 247 229 197 152 175 172 176 203 199 227 246 249 245 215 211 215 218 224 229 235 238 236 233 221 214 219 225
193 191 189 187 178 176 183 190 194 189 181 183 180 178 191 201 206 216 224 228 233 208 227 227 187 173 345 175 174 177 169 160 169 167 160 168 178 180 175 166 160 154 154 162 178 182 172 161 174 182 189 195 199 200 210 217 206 211 202 199 231 241 241 217 144 161 176 189 213 207 229 242 242 244 234 229 221 218 224 226 229 230 229 232 227 219 219 225
190 186 185 184 179 175 182 189 193 189 177 181 180 169 177 189 192 212 218 224 228 215 266 250 189 280 32 156 169 168 160 160 169 164 159 162 161 161 160 157 158 158 162 163 170 183 175 163 188 192 190 188 196 205 213 230 236 234 215 200 222 238 245 224 140 168 185 183 209 219 236 245 246 247 238 238 232 224 225 225 228 229 227 227 226 226 226 230
187 183 182 183 180 175 179 187 189 186 180 184 183 169 170 177 176 201 202 219 231 223 244 263 202 318 62 157 171 166 158 160 168 165 161 162 155 150 153 157 162 177 175 155 146 169 180 191 195 188 192 185 192 213 219 230 244 252 240 213 227 234 257 260 122 157 168 167 229 233 254 255 252 257 250 248 243 232 228 224 226 229 229 227 225 226 229 235
184 183 181 181 181 176 177 184 184 182 182 183 181 177 179 183 189 203 194 212 234 225 238 250 245 281 164 163 175 167 157 154 165 171 166 162 160 156 159 164 167 177 172 155 142 162 195 210 192 183 196 198 199 213 223 232 239 245 235 222 232 219 239 330 107 139 129 96 259 259 273 267 265 265 257 253 252 247 240 234 231 228 228 229 228 228 229 233
181 181 180 180 180 178 176 182 183 181 182 180 180 181 181 188 197 205 193 197 248 229 236 244 254 266 243 173 173 167 159 155 164 177 172 168 171 167 164 168 174 169 170 171 163 176 198 205 191 179 187 211 212 207 219 233 233 240 228 217 231 213 213 191 95 171 152 184 262 284 286 276 277 270 260 251 247 248 243 240 239 233 229 229 229 231 230 230
180 180 181 179 179 179 175 179 183 181 182 181 184 183 178 189 196 193 182 173 326 238 238 244 250 251 246 202 174 172 173 169 169 176 176 174 173 168 166 170 172 173 179 179 177 190 183 156 190 190 188 204 205 199 213 222 221 237 231 216 227 225 221 201 162 195 190 210 234 312 307 273 255 247 249 243 234 237 239 238 241 238 233 231 231 232 232 233
179 179 180 177 177 178 173 177 184 185 182 180 185 184 180 186 186 182 173 122 310 214 236 239 238 244 245 226 181 176 179 180 177 177 176 175 170 162 167 175 173 179 186 183 184 201 185 151 179 200 202 202 199 198 207 204 209 232 223 217 242 259 256 212 161 140 338 277 195 354 298 271 268 253 263 268 228 235 235 229 235 238 233 228 229 233 235 237
179 177 178 177 175 173 171 175 184 188 184 179 184 184 181 180 176 179 173 52 274 192 145 198 208 228 228 220 194 181 180 187 185 182 176 174 176 169 163 172 179 185 181 183 190 205 189 162 172 199 204 199 202 204 196 188 206 239 206 199 227 269 311 294 108 101 83 270 199 184 217 272 312 291 285 312 312 284 251 225 227 231 230 226 228 232 237 239
179 177 175 177 176 172 169 171 180 187 186 180 182 181 178 172 166 169 168 294 250 161 136 172 185 190 198 205 199 193 173 162 172 185 182 179 184 182 178 171 174 185 176 175 196 188 176 172 176 199 202 197 204 203 180 181 200 265 208 176 194 226 278 319 35 61 241 343 261 202 176 256 281 267 262 268 273 271 261 250 236 228 226 224 226 232 238 242
178 177 175 177 178 173 166 168 178 184 189 187 183 179 171 161 158 160 166 231 185 133 138 169 178 184 178 181 188 197 157 152 157 185 185 185 187 184 198 185 172 177 174 176 195 173 170 181 183 192 199 195 198 199 177 179 189 275 293 147 164 203 223 181 96 259 309 23 287 218 168 245 266 253 246 234 240 252 249 245 241 234 228 221 224 232 239 245
179 177 177 176 176 173 167 168 176 181 186 188 185 178 165 155 153 148 187 228 136 97 141 165 174 176 157 162 183 196 181 161 152 170 178 186 187 176 199 196 184 175 174 180 179 141 170 184 182 185 201 193 188 198 184 181 185 204 193 98 104 107 49 51 80 78 6 347 237 210 179 235 270 256 245 223 227 238 236 235 235 229 225 220 222 229 238 246
181 178 179 175 172 173 168 161 170 176 177 180 184 175 159 154 148 130 194 204 95 106 140 154 168 159 149 155 187 192 192 166 127 150 167 181 180 178 152 171 179 163 158 147 115 55 78 162 176 186 205 190 176 192 184 163 147 132 119 89 77 65 63 47 40 72 19 274 232 204 198 211 274 255 229 214 238 236 200 208 209 188 183 187 209 222 235 237
182 179 179 175 174 174 168 157 162 170 170 173 175 164 151 145 147 177 185 176 37 150 147 147 165 155 155 167 188 186 188 146 142 149 156 164 165 177 155 147 134 94 96 70 61 316 97 144 175 178 185 179 148 124 120 135 137 126 119 114 93 69 72 56 58 103 203 251 269 223 196 192 226 252 228 199 250 350 118 171 156 123 115 90 89 229 222 211
181 180 177 174 176 176 169 164 169 170 172 172 165 156 147 135 213 204 179 63 44 173 158 148 166 160 162 172 183 186 182 153 161 159 158 167 171 176 177 177 154 132 161 159 149 209 159 155 150 99 167 175 136 105 85 126 143 138 148 146 125 121 118 176 190 184 222 230 271 298 150 205 230 247 257 261 260 217 190 198 172 140 156 285 288 265 242 229
179 178 174 171 176 176 171 171 175 174 174 170 160 150 151 175 189 198 189 151 62 228 155 149 166 167 161 171 187 192 184 175 174 167 163 171 180 183 191 195 176 159 170 165 156 157 148 360 16 118 183 188 167 156 153 160 168 169 168 163 158 148 150 206 194 211 245 244 283 351 59 281 264 256 241 249 262 250 220 208 196 182 202 240 271 270 257 244
177 176 174 171 172 173 173 173 176 179 173 165 157 149 173 185 176 187 199 191 17 318 167 152 160 169 169 175 182 179 186 199 177 170 167 172 179 186 191 203 201 196 110 153 162 157 158 203 189 173 171 180 184 172 154 141 156 179 179 169 190 178 169 186 178 199 204 89 317 263 135 209 210 285 251 240 263 272 222 185 180 197 230 252 265 261 251 236
176 176 174 174 173 171 174 174 177 182 170 161 156 157 174 177 179 187 195 202 59 197 191 165 156 166 180 179 173 171 170 196 182 177 174 176 181 184 182 189 200 199 141 157 178 169 171 188 182 177 161 169 175 157 145 135 145 194 178 171 223 229 161 154 162 173 144 95 277 218 240 235 213 287 288 267 259 248 209 181 174 199 234 247 249 225 209 205
175 175 174 177 177 175 174 173 176 179 170 165 170 188 182 188 186 183 177 176 178 161 175 179 162 163 184 176 171 172 153 116 184 185 184 182 183 185 184 184 188 194 183 167 157 175 180 176 172 170 144 179 179 157 156 157 148 184 194 186 214 348 99 121 136 79 96 275 243 186 247 282 281 283 268 244 245 235 211 199 194 204 203 188 169 146 143 140
172 173 177 180 179 178 178 174 171 169 166 170 201 196 188 210 207 179 168 182 185 146 154 201 174 167 181 166 175 179 153 111 190 194 187 184 190 187 183 185 186 196 208 186 174 184 165 73 226 169 144 190 188 151 159 174 150 148 195 185 109 32 27 103 104 56 117 249 251 186 220 246 227 267 252 214 223 229 214 198 189 187 169 151 147 138 129 120
171 171 179 184 182 182 182 182 175 164 157 168 227 215 186 210 260 241 169 185 194 163 166 217 184 166 176 167 173 177 163 154 189 197 180 179 196 186 179 184 189 196 210 199 180 159 146 102 324 221 149 186 191 146 162 191 181 170 176 160 139 84 240 165 167 176 174 221 268 224 216 217 206 228 255 203 203 212 218 197 172 167 157 151 151 142 131 123
168 167 183 189 185 182 181 183 180 171 161 176 218 218 174 189 248 261 231 202 201 199 193 201 195 169 180 176 166 172 173 175 176 172 182 183 183 184 184 185 188 195 207 205 177 154 159 140 108 264 199 171 187 179 181 191 217 309 166 171 194 207 170 175 175 147 157 195 253 260 218 225 221 210 216 217 198 199 208 191 169 162 157 159 160 151 142 133
163 161 191 192 186 179 174 175 173 169 179 204 210 220 202 195 220 241 249 242 205 206 216 206 199 182 173 175 154 164 174 176 172 170 184 186 170 182 190 189 183 191 203 214 190 152 159 152 131 151 235 178 187 205 196 185 177 170 177 186 198 182 127 157 184 169 144 169 225 254 248 254 244 200 206 211 194 190 187 161 158 161 158 167 169 157 149 142
161 153 175 186 188 178 166 165 164 166 189 208 214 222 221 226 211 220 238 245 241 236 246 237 214 195 171 169 165 164 158 148 177 181 178 184 185 193 197 196 189 184 194 214 207 171 164 155 141 144 183 189 194 211 202 181 182 184 184 183 184 177 136 144 203 205 180 188 203 215 258 268 253 176 191 200 186 173 158 144 157 170 168 174 174 161 152 145
161 157 166 179 187 176 163 159 171 177 198 209 211 216 215 233 236 207 222 232 231 243 279 278 233 214 193 172 167 156 154 146 177 185 191 195 201 205 193 194 192 184 186 196 195 182 123 111 139 144 177 186 175 354 25 52 178 192 207 192 181 182 174 178 202 195 176 218 240 230 275 273 255 153 155 177 158 144 151 154 165 174 173 175 176 166 153 149
164 146 161 179 189 177 165 165 192 180 215 220 213 219 216 227 247 222 215 215 206 192 206 289 262 236 215 176 162 152 161 175 176 192 234 217 212 217 190 189 190 182 185 196 193 175 84 102 134 104 75 16 17 3 11 33 107 191 218 206 184 197 201 189 177 157 171 206 207 208 249 259 271 14 79 121 134 136 148 159 166 171 169 173 180 177 162 157
163 141 158 180 188 179 170 171 185 184 212 213 214 225 222 238 252 234 220 206 200 188 188 214 263 257 225 167 163 161 171 185 179 192 221 242 220 217 187 189 193 187 189 191 181 181 184 146 130 121 133 131 35 296 224 207 197 204 212 204 199 203 197 194 273 124 184 212 184 182 245 247 241 90 101 116 124 127 143 157 162 169 172 177 185 188 184 178
155 141 159 177 180 180 184 194 184 188 201 198 206 213 212 230 236 231 235 224 212 208 201 202 214 235 237 184 179 172 176 195 192 186 209 225 214 200 185 189 194 203 208 197 179 176 186 167 157 162 169 176 187 196 194 194 198 199 188 195 205 203 189 197 222 152 230 224 177 183 243 246 146 126 149 134 130 135 151 161 163 171 183 190 193 194 195 198
157 156 158 175 182 189 210 211 197 199 197 189 203 212 210 226 231 225 230 239 232 220 214 209 205 216 233 212 203 191 183 198 194 154 205 218 208 236 191 186 190 204 212 206 184 168 156 190 192 190 191 193 192 181 148 140 162 189 189 191 200 199 192 187 181 211 224 213 182 219 233 235 177 188 199 168 162 169 166 167 171 176 186 193 196 197 198 205
162 173 161 172 188 198 218 221 213 209 191 183 191 203 207 220 233 217 212 221 234 227 220 218 203 206 218 209 208 208 190 195 196 168 198 221 250 304 200 185 191 203 205 203 192 179 142 197 200 204 211 203 159 140 146 152 178 194 190 189 192 192 195 191 198 216 206 141 229 232 223 229 230 194 194 197 183 179 175 176 181 186 191 193 195 199 204 213
169 184 181 182 182 170 191 205 206 205 194 187 192 196 201 213 223 212 199 208 222 221 219 221 208 212 218 201 190 202 190 190 203 195 189 207 246 308 209 190 193 197 193 192 197 188 120 205 202 203 211 201 128 146 161 165 185 189 182 190 191 187 196 205 215 219 190 183 237 226 192 217 229 195 196 208 186 181 187 188 191 193 194 195 196 201 207 217
178 180 182 188 189 177 187 193 191 198 202 195 197 201 201 208 215 214 207 207 215 212 213 223 210 210 223 213 198 204 197 188 200 198 183 183 193 218 207 197 193 185 175 174 199 184 148 212 206 193 205 208 164 160 163 165 176 180 185 192 189 189 200 210 222 221 199 220 239 223 191 227 226 199 208 204 189 191 189 185 190 191 193 197 200 205 211 222
187 184 165 179 200 204 191 191 189 199 210 206 207 209 207 210 211 211 213 212 212 202 206 222 220 204 213 220 215 214 208 199 202 203 188 176 186 204 204 193 176 177 177 176 184 182 191 208 194 178 201 215 192 174 169 168 171 176 186 187 184 192 203 216 229 223 208 230 240 238 256 259 226 185 195 187 187 190 179 174 179 184 192 200 205 211 219 229
190 193 179 162 199 215 195 183 182 191 210 211 211 210 213 216 210 208 215 216 219 216 200 211 221 212 208 218 222 225 219 212 216 213 199 190 194 199 212 210 168 166 181 184 177 182 193 199 183 175 200 214 199 186 175 168 167 176 184 183 184 192 200 212 224 217 207 225 233 233 255 255 187 150 180 183 185 184 175 176 180 189 199 204 209 217 225 234
190 194 195 187 195 206 203 195 187 195 209 212 215 216 216 219 214 212 217 213 217 224 219 211 214 212 210 214 218 225 225 222 227 227 215 205 203 203 229 249 205 180 181 177 180 188 189 192 179 166 200 216 191 170 155 142 152 189 194 188 189 196 203 210 221 219 214 219 217 217 233 226 149 159 191 191 183 181 184 188 195 203 207 209 215 220 227 235